The Villages, FL

2:09 AM EDT on April 29, 2017 (GMT -0400)
The Villages

Weather History for KVVG - February, 2013

Change the Weather History Date:

Sunday, February 10, 2013

  Actual Average (KLEE) Record (KLEE)
Temperature  
Mean Temperature 66 °F -  
Max Temperature 78 °F 67 °F 84 °F (1959)
Min Temperature 53 °F 42 °F 30 °F (1971)
Growing Degree Days 16 (Base 50)    
Moisture  
Dew Point 54 °F    
Average Humidity 69    
Maximum Humidity 94    
Minimum Humidity 42    
Precipitation  
Precipitation 0.00 in - - ()
Sea Level Pressure  
Sea Level Pressure 30.22 in    
Wind  
Wind Speed 6 mph (ESE)    
Max Wind Speed 17 mph    
Max Gust Speed 23 mph    
Visibility 9 miles    
Events      
Averages and records for this station are not official NWS values.
T = Trace of Precipitation, MM = Missing Value Source: NWS Daily Summary

Daily Weather History Graph

Daily Weather History Graph

Search for Another Location

Airport or City:

Trip Planner

Search our weather history database for the weather conditions in past years. The results will help you decide how hot, cold, wet, or windy it might be!

Date:

Astronomy

Feb. 10, 2013 Rise Set
Actual Time 7:09 AM EST 6:13 PM EST
Civil Twilight 6:45 AM EST 6:38 PM EST
Nautical Twilight 6:17 AM EST 7:06 PM EST
Astronomical Twilight 5:49 AM EST 7:33 PM EST
Moon 7:04 AM EST (2/10) 6:54 PM EST (2/10)
Length of Visible Light 11h 52m
Length of Day
11h 03m
New Moon, 0% of the Moon is Illuminated
Feb 10
New Moon
Feb 17
First Quarter
Feb 25
Full
Mar 4
Last Quarter
Mar 11
New

Hourly Weather History & Observations

Time (EST) Temp. Dew Point Humidity Pressure Visibility Wind Dir Wind Speed Gust Speed Precip Events Conditions
12:15 AM 53.6 °F 50.0 °F 88% 30.23 in 10.0 mi NNE 5.8 mph - N/A   Unknown
12:55 AM 53.6 °F 50.0 °F 88% 30.23 in 9.0 mi Calm Calm - N/A   Unknown
1:15 AM 53.6 °F 50.0 °F 88% 30.23 in 8.0 mi Calm Calm - N/A   Unknown
1:35 AM 53.6 °F 50.0 °F 88% 30.22 in 9.0 mi Calm Calm - N/A   Unknown
1:55 AM 53.6 °F 50.0 °F 88% 30.22 in 10.0 mi Calm Calm - N/A   Unknown
2:15 AM 53.6 °F 50.0 °F 88% 30.22 in 8.0 mi Calm Calm - N/A   Unknown
2:35 AM 53.6 °F 50.0 °F 88% 30.22 in 9.0 mi ENE 4.6 mph - N/A   Unknown
2:55 AM 53.6 °F 50.0 °F 88% 30.22 in 8.0 mi Calm Calm - N/A   Unknown
3:15 AM 53.6 °F 50.0 °F 88% 30.22 in 9.0 mi Calm Calm - N/A   Unknown
3:35 AM 53.6 °F 50.0 °F 88% 30.22 in 9.0 mi Calm Calm - N/A   Unknown
3:55 AM 53.6 °F 50.0 °F 88% 30.22 in 9.0 mi Calm Calm - N/A   Unknown
4:15 AM 53.6 °F 50.0 °F 88% 30.21 in 9.0 mi Calm Calm - N/A   Unknown
4:35 AM 53.6 °F 50.0 °F 88% 30.21 in 9.0 mi Calm Calm - N/A   Unknown
4:55 AM 53.6 °F 50.0 °F 88% 30.21 in 9.0 mi ENE 5.8 mph - N/A   Unknown
5:15 AM 53.6 °F 50.0 °F 88% 30.21 in 7.0 mi ENE 4.6 mph - N/A   Unknown
5:35 AM 53.6 °F 50.0 °F 88% 30.21 in 9.0 mi Calm Calm - N/A   Unknown
5:55 AM 53.6 °F 50.0 °F 88% 30.22 in 10.0 mi Calm Calm - N/A   Unknown
6:15 AM 53.6 °F 50.0 °F 88% 30.22 in 9.0 mi ENE 5.8 mph - N/A   Unknown
6:35 AM 53.6 °F 50.0 °F 88% 30.23 in 10.0 mi Calm Calm - N/A   Unknown
6:55 AM 53.6 °F 51.8 °F 94% 30.23 in 9.0 mi ENE 3.5 mph - N/A   Unknown
7:15 AM 53.6 °F 51.8 °F 94% 30.24 in 8.0 mi Calm Calm - N/A   Unknown
7:35 AM 55.4 °F 51.8 °F 88% 30.25 in 9.0 mi Calm Calm - N/A   Unknown
7:55 AM 55.4 °F 51.8 °F 88% 30.26 in 7.0 mi Calm Calm - N/A   Unknown
8:15 AM 57.2 °F 53.6 °F 88% 30.27 in 8.0 mi ENE 6.9 mph - N/A   Unknown
8:35 AM 60.8 °F 53.6 °F 77% 30.27 in 7.0 mi East 6.9 mph - N/A   Unknown
8:55 AM 64.4 °F 53.6 °F 68% 30.28 in 7.0 mi East 10.4 mph 16.1 mph N/A   Unknown
9:15 AM 64.4 °F 53.6 °F 68% 30.28 in 8.0 mi ESE 12.7 mph - N/A   Unknown
9:35 AM 68.0 °F 53.6 °F 60% 30.28 in 8.0 mi ESE 10.4 mph 17.3 mph N/A   Unknown
9:55 AM 69.8 °F 53.6 °F 56% 30.29 in 8.0 mi ESE 15.0 mph 20.7 mph N/A   Unknown
10:15 AM 69.8 °F 53.6 °F 56% 30.29 in 9.0 mi ESE 12.7 mph 21.9 mph N/A   Unknown
10:35 AM 71.6 °F 53.6 °F 53% 30.29 in 8.0 mi ESE 12.7 mph 18.4 mph N/A   Unknown
10:55 AM 71.6 °F 53.6 °F 53% 30.29 in 7.0 mi ESE 17.3 mph 23.0 mph N/A   Unknown
11:15 AM 73.4 °F 53.6 °F 50% 30.28 in 7.0 mi East 13.8 mph - N/A   Unknown
11:35 AM 75.2 °F 53.6 °F 47% 30.27 in 8.0 mi ESE 15.0 mph - N/A   Unknown
11:55 AM 75.2 °F 53.6 °F 47% 30.26 in 8.0 mi SE 12.7 mph 18.4 mph N/A   Unknown
12:15 PM 75.2 °F 53.6 °F 47% 30.26 in 9.0 mi SE 11.5 mph - N/A   Unknown
12:35 PM 75.2 °F 55.4 °F 50% 30.24 in 9.0 mi SE 13.8 mph 19.6 mph N/A   Unknown
12:55 PM 75.2 °F 55.4 °F 50% 30.23 in 8.0 mi SE 10.4 mph - N/A   Unknown
1:15 PM 77.0 °F 55.4 °F 47% 30.22 in 9.0 mi SE 11.5 mph - N/A   Unknown
1:35 PM 77.0 °F 55.4 °F 47% 30.22 in 9.0 mi ESE 10.4 mph - N/A   Unknown
1:55 PM 77.0 °F 53.6 °F 44% 30.21 in 10.0 mi SE 11.5 mph - N/A   Unknown
2:55 PM 78.8 °F 53.6 °F 42% 30.19 in 10.0 mi ESE 12.7 mph - N/A   Unknown
3:15 PM 78.8 °F 53.6 °F 42% 30.19 in 10.0 mi SE 9.2 mph - N/A   Unknown
3:35 PM 78.8 °F 53.6 °F 42% 30.18 in 10.0 mi ESE 10.4 mph - N/A   Unknown
3:55 PM 78.8 °F 53.6 °F 42% 30.17 in 10.0 mi ESE 10.4 mph - N/A   Unknown
4:15 PM 78.8 °F 53.6 °F 42% 30.18 in 10.0 mi SE 9.2 mph - N/A   Unknown
4:35 PM 75.2 °F 53.6 °F 47% 30.17 in 10.0 mi ESE 8.1 mph - N/A   Unknown
4:55 PM 75.2 °F 55.4 °F 50% 30.18 in 10.0 mi East 10.4 mph - N/A   Unknown
5:15 PM 75.2 °F 55.4 °F 50% 30.17 in 9.0 mi ESE 9.2 mph - N/A   Unknown
5:35 PM 73.4 °F 57.2 °F 57% 30.18 in 8.0 mi ESE 11.5 mph - N/A   Unknown
5:55 PM 73.4 °F 57.2 °F 57% 30.19 in 8.0 mi ESE 9.2 mph - N/A   Unknown
6:15 PM 71.6 °F 57.2 °F 60% 30.19 in 8.0 mi ESE 9.2 mph - N/A   Unknown
6:35 PM 71.6 °F 57.2 °F 60% 30.19 in 10.0 mi East 5.8 mph - N/A   Unknown
6:55 PM 69.8 °F 57.2 °F 64% 30.19 in 9.0 mi ESE 11.5 mph - N/A   Unknown
7:15 PM 69.8 °F 57.2 °F 64% 30.19 in 10.0 mi ESE 8.1 mph - N/A   Unknown
7:35 PM 69.8 °F 57.2 °F 64% 30.19 in 10.0 mi ESE 11.5 mph - N/A   Unknown
7:55 PM 68.0 °F 57.2 °F 68% 30.20 in 10.0 mi ESE 10.4 mph - N/A   Unknown
8:15 PM 68.0 °F 57.2 °F 68% 30.20 in 9.0 mi ESE 11.5 mph - N/A   Unknown
8:35 PM 68.0 °F 57.2 °F 68% 30.20 in 10.0 mi ESE 11.5 mph 17.3 mph N/A   Unknown
8:55 PM 68.0 °F 57.2 °F 68% 30.21 in 10.0 mi ESE 10.4 mph - N/A   Unknown
9:15 PM 66.2 °F 57.2 °F 73% 30.21 in 9.0 mi SE 9.2 mph - N/A   Unknown
9:35 PM 66.2 °F 57.2 °F 73% 30.21 in 10.0 mi SE 9.2 mph - N/A   Unknown
9:55 PM 66.2 °F 57.2 °F 73% 30.21 in 10.0 mi SE 9.2 mph - N/A   Unknown
10:15 PM 66.2 °F 57.2 °F 73% 30.21 in 10.0 mi SSE 8.1 mph - N/A   Unknown
10:35 PM 66.2 °F 57.2 °F 73% 30.21 in 9.0 mi SSE 8.1 mph - N/A   Unknown
10:55 PM 64.4 °F 57.2 °F 77% 30.20 in 9.0 mi SSE 8.1 mph - N/A   Unknown
11:15 PM 64.4 °F 57.2 °F 77% 30.20 in 9.0 mi SSE 8.1 mph - N/A   Unknown
11:35 PM 64.4 °F 57.2 °F 77% 30.19 in 8.0 mi SSE 9.2 mph - N/A   Unknown
11:55 PM 64.4 °F 57.2 °F 77% 30.20 in 9.0 mi SSE 9.2 mph - N/A   Unknown